| time (UTC) | temp F | wind direction | speed knots | gust knots | rain 1hr in | rain 24hr in | rain mn in | humidity % | barometer mb |
| 20260506184941 | 75 | 348 | 3.5 | 11.3 | 0.00 | 0.00 | 0.00 | 55 | 1012.1 |
| 20260506184441 | 75 | 314 | 3.5 | 8.7 | 0.00 | 0.00 | 0.00 | 56 | 1012.1 |
| 20260506183935 | 75 | 50 | 3.5 | 8.7 | 0.00 | 0.00 | 0.00 | 57 | 1012.0 |
| 20260506183431 | 75 | 59 | 3.5 | 7.0 | 0.00 | 0.00 | 0.00 | 57 | 1012.1 |
| 20260506183235 | 74 | 50 | 2.6 | 7.8 | 0.00 | 0.00 | 0.00 | 59 | 1012.2 |
| 20260506182947 | 74 | 305 | 2.6 | 7.8 | 0.00 | 0.00 | 0.00 | 58 | 1012.1 |
| 20260506181956 | 74 | 323 | 2.6 | 7.0 | 0.00 | 0.00 | 0.00 | 58 | 1012.0 |
| 20260506181948 | 74 | 336 | 2.6 | 7.0 | 0.00 | 0.00 | 0.00 | 59 | 1012.1 |
| 20260506180931 | 73 | 326 | 2.6 | 7.0 | 0.00 | 0.00 | 0.00 | 59 | 1011.9 |
| 20260506180430 | 72 | 51 | 2.6 | 7.0 | 0.00 | 0.00 | 0.00 | 59 | 1011.9 |
| 20260506175929 | 72 | 32 | 2.6 | 7.0 | 0.00 | 0.00 | 0.00 | 59 | 1011.9 |
| 20260506175429 | 72 | 76 | 2.6 | 7.0 | 0.00 | 0.00 | 0.00 | 58 | 1011.9 |
| 20260506174930 | 71 | 345 | 2.6 | 7.0 | 0.00 | 0.00 | 0.00 | 59 | 1011.8 |
| 20260506174431 | 71 | 325 | 3.5 | 8.7 | 0.00 | 0.00 | 0.00 | 58 | 1011.9 |
| 20260506174214 | 70 | 83 | 3.5 | 9.6 | 0.00 | 0.00 | 0.00 | 60 | 1012.0 |
| 20260506173424 | 70 | 42 | 3.5 | 9.6 | 0.00 | 0.00 | 0.00 | 60 | 1012.1 |
| 20260506172925 | 70 | 69 | 3.5 | 8.7 | 0.00 | 0.00 | 0.00 | 59 | 1012.1 |
| 20260506172424 | 69 | 61 | 4.3 | 8.7 | 0.00 | 0.00 | 0.00 | 60 | 1012.1 |
| 20260506171924 | 69 | 86 | 4.3 | 8.7 | 0.00 | 0.00 | 0.00 | 61 | 1012.1 |
| 20260506171424 | 68 | 111 | 4.3 | 10.4 | 0.00 | 0.00 | 0.00 | 61 | 1012.1 |
| 20260506170924 | 68 | 103 | 4.3 | 11.3 | 0.00 | 0.00 | 0.00 | 61 | 1012.0 |
| 20260506170419 | 67 | 58 | 4.3 | 11.3 | 0.00 | 0.00 | 0.00 | 61 | 1012.2 |
| 20260506165921 | 67 | 74 | 4.3 | 11.3 | 0.00 | 0.00 | 0.00 | 62 | 1012.3 |
| 20260506165421 | 66 | 0 | 5.2 | 11.3 | 0.00 | 0.00 | 0.00 | 63 | 1012.4 |
| 20260506164920 | 66 | 0 | 5.2 | 11.3 | 0.00 | 0.00 | 0.00 | 64 | 1012.6 |
| 20260506164421 | 65 | 91 | 3.5 | 9.6 | 0.00 | 0.00 | 0.00 | 67 | 1012.9 |
| 20260506163921 | 63 | 85 | 3.5 | 9.6 | 0.00 | 0.00 | 0.00 | 67 | 1013.2 |
| 20260506163415 | 63 | 9 | 4.3 | 9.6 | 0.00 | 0.00 | 0.00 | 68 | 1013.4 |
| 20260506162916 | 62 | 25 | 5.2 | 13.9 | 0.00 | 0.00 | 0.00 | 68 | 1013.5 |
| 20260506162658 | 62 | 338 | 5.2 | 13.9 | 0.00 | 0.00 | 0.00 | 68 | 1013.4 |
| 20260506161916 | 62 | 23 | 4.3 | 13.0 | 0.00 | 0.00 | 0.00 | 67 | 1013.7 |
| 20260506161416 | 63 | 355 | 5.2 | 13.0 | 0.00 | 0.00 | 0.00 | 67 | 1014.1 |
| 20260506160917 | 63 | 9 | 5.2 | 14.8 | 0.00 | 0.00 | 0.00 | 67 | 1014.0 |
| 20260506160412 | 64 | 319 | 4.3 | 14.8 | 0.00 | 0.00 | 0.00 | 67 | 1013.7 |
| 20260506155913 | 64 | 355 | 4.3 | 13.0 | 0.00 | 0.00 | 0.00 | 67 | 1013.8 |
| 20260506155413 | 65 | 55 | 4.3 | 13.0 | 0.00 | 0.00 | 0.00 | 67 | 1013.9 |
| 20260506154911 | 65 | 0 | 5.2 | 13.9 | 0.00 | 0.00 | 0.00 | 66 | 1013.6 |
| 20260506154411 | 66 | 0 | 5.2 | 13.9 | 0.00 | 0.00 | 0.00 | 66 | 1013.4 |
| 20260506153912 | 67 | 40 | 4.3 | 9.6 | 0.00 | 0.00 | 0.00 | 65 | 1013.4 |
| 20260506153407 | 67 | 321 | 4.3 | 10.4 | 0.00 | 0.00 | 0.00 | 65 | 1013.0 |
| 20260506152909 | 67 | 15 | 6.1 | 13.9 | 0.00 | 0.00 | 0.00 | 65 | 1012.5 |
| 20260506152407 | 68 | 0 | 6.1 | 13.9 | 0.00 | 0.00 | 0.00 | 64 | 1012.3 |
| 20260506151908 | 69 | 43 | 5.2 | 13.0 | 0.00 | 0.00 | 0.00 | 63 | 1012.3 |
| 20260506151409 | 71 | 311 | 4.3 | 13.0 | 0.00 | 0.00 | 0.00 | 61 | 1012.3 |
| 20260506150908 | 75 | 303 | 2.6 | 8.7 | 0.00 | 0.00 | 0.00 | 61 | 1012.0 |
| 20260506150403 | 78 | 51 | 1.7 | 3.5 | 0.00 | 0.00 | 0.00 | 65 | 1011.6 |
| 20260506145904 | 78 | 92 | 1.7 | 3.5 | 0.00 | 0.00 | 0.00 | 65 | 1011.4 |
| 20260506145643 | 78 | 123 | 0.9 | 3.5 | 0.00 | 0.00 | 0.00 | 64 | 1011.2 |
| 20260506144905 | 78 | 109 | 1.7 | 3.5 | 0.00 | 0.00 | 0.00 | 64 | 1011.0 |
| 20260506144404 | 78 | 116 | 1.7 | 4.3 | 0.00 | 0.00 | 0.00 | 65 | 1010.9 |
| 20260506143904 | 78 | 111 | 2.6 | 6.1 | 0.00 | 0.00 | 0.00 | 65 | 1010.9 |
| 20260506143401 | 78 | 139 | 2.6 | 6.1 | 0.00 | 0.00 | 0.00 | 65 | 1010.8 |
| 20260506142902 | 78 | 134 | 2.6 | 5.2 | 0.00 | 0.00 | 0.00 | 65 | 1010.7 |
| 20260506142359 | 78 | 130 | 1.7 | 5.2 | 0.00 | 0.00 | 0.00 | 66 | 1010.5 |
| 20260506141859 | 77 | 123 | 2.6 | 5.2 | 0.00 | 0.00 | 0.00 | 66 | 1010.3 |
| 20260506141355 | 77 | 119 | 0.9 | 5.2 | 0.00 | 0.00 | 0.00 | 67 | 1010.4 |
| 20260506140852 | 77 | 153 | 0.0 | 2.6 | 0.00 | 0.00 | 0.00 | 67 | 1010.7 |
| 20260506140636 | 76 | 122 | 0.9 | 2.6 | 0.00 | 0.00 | 0.00 | 68 | 1010.8 |
| 20260506135852 | 76 | 122 | 0.0 | 2.6 | 0.00 | 0.00 | 0.00 | 68 | 1010.7 |
| 20260506135346 | 76 | 122 | 0.0 | 2.6 | 0.00 | 0.00 | 0.00 | 69 | 1010.4 |
| 20260506134845 | 76 | 122 | 0.9 | 2.6 | 0.00 | 0.00 | 0.00 | 69 | 1010.2 |
| 20260506134626 | 76 | 122 | 0.9 | 2.6 | 0.00 | 0.00 | 0.00 | 69 | 1010.1 |
| 20260506133846 | 76 | 121 | 0.9 | 2.6 | 0.00 | 0.00 | 0.00 | 69 | 1010.1 |
| 20260506133346 | 76 | 122 | 0.9 | 3.5 | 0.00 | 0.00 | 0.00 | 69 | 1010.1 |
| 20260506132846 | 76 | 119 | 0.9 | 3.5 | 0.00 | 0.00 | 0.00 | 70 | 1010.0 |
| 20260506132342 | 75 | 130 | 0.9 | 2.6 | 0.00 | 0.00 | 0.00 | 70 | 1010.0 |
| 20260506132120 | 75 | 131 | 0.9 | 3.5 | 0.00 | 0.00 | 0.00 | 70 | 1010.0 |
| 20260506131341 | 75 | 156 | 0.9 | 3.5 | 0.00 | 0.00 | 0.00 | 70 | 1010.0 |
| 20260506130842 | 75 | 161 | 0.9 | 3.5 | 0.00 | 0.00 | 0.00 | 70 | 1010.1 |
| 20260506130340 | 75 | 162 | 0.9 | 3.5 | 0.00 | 0.00 | 0.00 | 70 | 1009.9 |
| 20260506125840 | 75 | 164 | 0.0 | 1.7 | 0.00 | 0.00 | 0.00 | 70 | 1009.8 |
| 20260506125613 | 75 | 164 | 0.0 | 1.7 | 0.00 | 0.00 | 0.00 | 70 | 1009.8 |
| 20260506124832 | 75 | 0 | 0.0 | 1.7 | 0.00 | 0.00 | 0.00 | 70 | 1009.8 |
| 20260506124330 | 74 | 0 | 0.0 | 1.7 | 0.00 | 0.00 | 0.00 | 70 | 1009.8 |
| 20260506123828 | 74 | 0 | 0.0 | 0.9 | 0.00 | 0.00 | 0.00 | 70 | 1009.7 |
| 20260506123329 | 74 | 0 | 0.0 | 1.7 | 0.00 | 0.00 | 0.00 | 70 | 1009.7 |
| 20260506122827 | 74 | 164 | 0.0 | 2.6 | 0.00 | 0.00 | 0.00 | 70 | 1009.8 |
| 20260506122325 | 74 | 164 | 0.0 | 2.6 | 0.00 | 0.00 | 0.00 | 70 | 1009.7 |
| 20260506121824 | 74 | 164 | 0.0 | 0.9 | 0.00 | 0.00 | 0.00 | 70 | 1009.8 |
| 20260506121347 | 74 | 0 | 0.0 | 1.7 | 0.00 | 0.00 | 0.00 | 70 | 1009.7 |
| 20260506121339 | 74 | 0 | 0.0 | 1.7 | 0.00 | 0.00 | 0.00 | 70 | 1009.6 |
| 20260506120322 | 74 | 164 | 0.0 | 1.7 | 0.00 | 0.00 | 0.00 | 70 | 1009.6 |
| 20260506115816 | 74 | 164 | 0.0 | 3.5 | 0.00 | 0.00 | 0.00 | 70 | 1009.5 |
| 20260506115314 | 74 | 164 | 0.9 | 3.5 | 0.00 | 0.00 | 0.00 | 70 | 1009.6 |
| 20260506114812 | 75 | 164 | 0.9 | 3.5 | 0.00 | 0.00 | 0.00 | 70 | 1009.4 |
| 20260506114311 | 75 | 167 | 0.0 | 2.6 | 0.00 | 0.00 | 0.00 | 70 | 1009.5 |
| 20260506113809 | 75 | 167 | 0.0 | 0.0 | 0.00 | 0.00 | 0.00 | 70 | 1009.6 |
| 20260506113304 | 75 | 167 | 0.0 | 0.0 | 0.00 | 0.00 | 0.00 | 70 | 1009.6 |
| 20260506112803 | 75 | 167 | 0.0 | 0.0 | 0.00 | 0.00 | 0.00 | 69 | 1009.5 |
| 20260506112300 | 75 | 167 | 0.0 | 2.6 | 0.00 | 0.00 | 0.00 | 69 | 1009.5 |
| 20260506111758 | 75 | 167 | 0.9 | 4.3 | 0.00 | 0.00 | 0.00 | 69 | 1009.5 |
| 20260506111538 | 75 | 167 | 0.9 | 4.3 | 0.00 | 0.00 | 0.00 | 69 | 1009.6 |
| 20260506110752 | 75 | 162 | 0.0 | 3.5 | 0.00 | 0.00 | 0.00 | 69 | 1009.6 |
| 20260506110250 | 75 | 169 | 0.0 | 1.7 | 0.00 | 0.00 | 0.00 | 69 | 1009.5 |
| 20260506105748 | 75 | 169 | 0.0 | 1.7 | 0.00 | 0.00 | 0.00 | 69 | 1009.6 |
| 20260506105247 | 75 | 170 | 0.0 | 0.0 | 0.00 | 0.00 | 0.00 | 69 | 1009.4 |
| 20260506104746 | 75 | 170 | 0.0 | 1.7 | 0.00 | 0.00 | 0.00 | 69 | 1009.3 |
| 20260506104521 | 75 | 170 | 0.0 | 3.5 | 0.00 | 0.00 | 0.00 | 69 | 1009.3 |
| 20260506103744 | 75 | 171 | 0.9 | 3.5 | 0.00 | 0.00 | 0.00 | 69 | 1009.1 |
| 20260506103245 | 75 | 182 | 0.9 | 3.5 | 0.00 | 0.00 | 0.00 | 69 | 1009.2 |
| 20260506102743 | 75 | 170 | 0.0 | 3.5 | 0.00 | 0.00 | 0.00 | 69 | 1009.1 |
| 20260506102240 | 75 | 168 | 0.9 | 3.5 | 0.00 | 0.00 | 0.00 | 69 | 1009.2 |
| 20260506101740 | 75 | 167 | 0.9 | 3.5 | 0.00 | 0.00 | 0.00 | 69 | 1009.2 |
| 20260506101237 | 75 | 216 | 0.9 | 4.3 | 0.00 | 0.00 | 0.00 | 69 | 1009.1 |
| 20260506100737 | 75 | 218 | 0.9 | 4.3 | 0.00 | 0.00 | 0.00 | 69 | 1009.1 |
| 20260506100238 | 75 | 154 | 1.7 | 5.2 | 0.00 | 0.00 | 0.00 | 69 | 1009.1 |
| 20260506095736 | 75 | 167 | 1.7 | 5.2 | 0.00 | 0.00 | 0.00 | 69 | 1008.9 |
| 20260506095234 | 75 | 154 | 2.6 | 5.2 | 0.00 | 0.00 | 0.00 | 69 | 1008.8 |
| 20260506094735 | 75 | 167 | 1.7 | 5.2 | 0.00 | 0.00 | 0.00 | 69 | 1008.7 |
| 20260506094232 | 75 | 157 | 0.9 | 4.3 | 0.00 | 0.00 | 0.00 | 69 | 1008.7 |
| 20260506093730 | 75 | 166 | 1.7 | 4.3 | 0.00 | 0.00 | 0.00 | 69 | 1008.7 |
| 20260506093227 | 75 | 179 | 1.7 | 4.3 | 0.00 | 0.00 | 0.00 | 69 | 1008.7 |
| 20260506092728 | 75 | 150 | 1.7 | 4.3 | 0.00 | 0.00 | 0.00 | 69 | 1008.7 |
| 20260506092229 | 75 | 147 | 0.9 | 3.5 | 0.00 | 0.00 | 0.00 | 69 | 1008.6 |
| 20260506091728 | 75 | 146 | 0.9 | 5.2 | 0.00 | 0.00 | 0.00 | 69 | 1008.5 |
| 20260506091224 | 75 | 167 | 0.9 | 5.2 | 0.00 | 0.00 | 0.00 | 69 | 1008.3 |
| 20260506090724 | 75 | 136 | 1.7 | 5.2 | 0.00 | 0.00 | 0.00 | 69 | 1008.3 |
| 20260506090223 | 75 | 159 | 1.7 | 5.2 | 0.00 | 0.00 | 0.00 | 69 | 1008.3 |
| 20260506085722 | 75 | 167 | 1.7 | 5.2 | 0.00 | 0.00 | 0.00 | 69 | 1008.5 |
| 20260506085222 | 75 | 167 | 1.7 | 5.2 | 0.00 | 0.00 | 0.00 | 69 | 1008.3 |
| 20260506084721 | 75 | 219 | 2.6 | 7.8 | 0.00 | 0.00 | 0.00 | 69 | 1008.1 |
| 20260506084220 | 75 | 173 | 2.6 | 7.8 | 0.00 | 0.00 | 0.00 | 69 | 1008.2 |
| 20260506083719 | 75 | 161 | 2.6 | 7.8 | 0.00 | 0.00 | 0.00 | 69 | 1008.2 |
| 20260506083219 | 75 | 192 | 2.6 | 7.8 | 0.00 | 0.00 | 0.00 | 69 | 1008.1 |
| 20260506082718 | 75 | 157 | 1.7 | 7.8 | 0.00 | 0.00 | 0.00 | 69 | 1008.2 |
| 20260506082453 | 75 | 136 | 1.7 | 6.1 | 0.00 | 0.00 | 0.00 | 69 | 1008.1 |
| 20260506081717 | 75 | 161 | 2.6 | 6.1 | 0.00 | 0.00 | 0.00 | 69 | 1008.1 |
| 20260506081214 | 75 | 184 | 2.6 | 6.1 | 0.00 | 0.00 | 0.00 | 69 | 1008.1 |
| 20260506080712 | 75 | 187 | 2.6 | 7.8 | 0.00 | 0.00 | 0.00 | 69 | 1008.2 |
| 20260506080452 | 75 | 163 | 2.6 | 7.8 | 0.00 | 0.00 | 0.00 | 69 | 1008.2 |
| 20260506073205 | 75 | 148 | 2.6 | 8.7 | 0.00 | 0.00 | 0.00 | 69 | 1008.4 |
| 20260506072947 | 75 | 148 | 3.5 | 8.7 | 0.00 | 0.00 | 0.00 | 69 | 1008.3 |
| 20260506072204 | 75 | 219 | 3.5 | 8.7 | 0.00 | 0.00 | 0.00 | 69 | 1008.5 |
| 20260506071704 | 75 | 236 | 3.5 | 9.6 | 0.00 | 0.00 | 0.00 | 69 | 1008.5 |
| 20260506071158 | 75 | 183 | 3.5 | 9.6 | 0.00 | 0.00 | 0.00 | 69 | 1008.6 |
| 20260506070658 | 75 | 145 | 4.3 | 8.7 | 0.00 | 0.00 | 0.00 | 69 | 1008.6 |
| 20260506070156 | 75 | 170 | 3.5 | 8.7 | 0.00 | 0.00 | 0.00 | 69 | 1008.7 |
| 20260506062152 | 76 | 174 | 3.5 | 7.8 | 0.00 | 0.00 | 0.00 | 68 | 1008.5 |
| 20260506061652 | 76 | 167 | 3.5 | 8.7 | 0.00 | 0.00 | 0.00 | 68 | 1008.4 |
| 20260506061147 | 76 | 153 | 3.5 | 8.7 | 0.00 | 0.00 | 0.00 | 68 | 1008.5 |
| 20260506060647 | 76 | 150 | 2.6 | 7.0 | 0.00 | 0.00 | 0.00 | 68 | 1008.5 |
| 20260506060147 | 76 | 169 | 3.5 | 7.0 | 0.00 | 0.00 | 0.00 | 68 | 1008.6 |
| 20260506051139 | 76 | 172 | 3.5 | 9.6 | 0.00 | 0.00 | 0.00 | 68 | 1008.6 |
| 20260506050640 | 76 | 171 | 3.5 | 8.7 | 0.00 | 0.00 | 0.00 | 68 | 1008.6 |
| 20260506050213 | 76 | 172 | 4.3 | 9.6 | 0.00 | 0.00 | 0.00 | 68 | 1008.9 |
| 20260506050202 | 76 | 165 | 4.3 | 9.6 | 0.00 | 0.00 | 0.00 | 68 | 1008.9 |
| 20260506045134 | 76 | 152 | 4.3 | 9.6 | 0.00 | 0.00 | 0.00 | 68 | 1008.8 |
| 20260506044633 | 76 | 165 | 3.5 | 7.8 | 0.00 | 0.00 | 0.00 | 68 | 1008.7 |
| 20260506044133 | 76 | 155 | 3.5 | 7.8 | 0.00 | 0.00 | 0.00 | 68 | 1008.8 |
| 20260506043632 | 76 | 148 | 2.6 | 7.8 | 0.00 | 0.00 | 0.00 | 68 | 1008.8 |
| 20260506043415 | 76 | 143 | 2.6 | 6.1 | 0.00 | 0.00 | 0.00 | 68 | 1008.8 |
| 20260506042633 | 76 | 157 | 2.6 | 6.1 | 0.00 | 0.00 | 0.00 | 68 | 1008.7 |
| 20260506042133 | 76 | 147 | 1.7 | 6.1 | 0.00 | 0.00 | 0.00 | 68 | 1008.6 |
| 20260506041631 | 76 | 169 | 1.7 | 6.1 | 0.00 | 0.00 | 0.00 | 68 | 1008.6 |
| 20260506041154 | 76 | 150 | 2.6 | 6.1 | 0.00 | 0.00 | 0.00 | 67 | 1008.5 |
| 20260506041146 | 76 | 158 | 2.6 | 5.2 | 0.00 | 0.00 | 0.00 | 67 | 1008.7 |
| 20260506040130 | 76 | 146 | 2.6 | 7.0 | 0.00 | 0.00 | 0.00 | 67 | 1008.4 |
| 20260506035632 | 76 | 174 | 3.5 | 7.0 | 0.00 | 0.00 | 0.00 | 67 | 1008.3 |
| 20260506035130 | 76 | 178 | 3.5 | 7.0 | 0.00 | 0.00 | 0.00 | 67 | 1008.3 |
| 20260506034630 | 77 | 169 | 3.5 | 7.0 | 0.00 | 0.00 | 0.00 | 67 | 1008.3 |
| 20260506034125 | 76 | 153 | 2.6 | 7.0 | 0.00 | 0.00 | 0.00 | 67 | 1008.3 |
| 20260506033624 | 76 | 171 | 2.6 | 7.0 | 0.00 | 0.00 | 0.00 | 67 | 1008.4 |
| 20260506033124 | 77 | 162 | 2.6 | 7.0 | 0.00 | 0.00 | 0.00 | 67 | 1008.2 |
| 20260506032626 | 77 | 173 | 2.6 | 6.1 | 0.00 | 0.00 | 0.00 | 67 | 1008.1 |
| 20260506032122 | 77 | 159 | 2.6 | 6.1 | 0.00 | 0.00 | 0.00 | 67 | 1008.1 |
| 20260506031622 | 77 | 156 | 2.6 | 6.1 | 0.00 | 0.00 | 0.00 | 67 | 1008.1 |
| 20260506031401 | 77 | 158 | 2.6 | 6.1 | 0.00 | 0.00 | 0.00 | 66 | 1007.9 |
| 20260506030902 | 77 | 148 | 2.6 | 6.1 | 0.00 | 0.00 | 0.00 | 66 | 1008.0 |
| 20260506030120 | 77 | 143 | 2.6 | 6.1 | 0.00 | 0.00 | 0.00 | 66 | 1008.0 |
| 20260506025619 | 77 | 150 | 2.6 | 5.2 | 0.00 | 0.00 | 0.00 | 66 | 1007.7 |
| 20260506025118 | 77 | 0 | 2.6 | 7.8 | 0.00 | 0.00 | 0.00 | 66 | 1007.7 |
| 20260506024620 | 77 | 0 | 3.5 | 7.8 | 0.00 | 0.00 | 0.00 | 66 | 1007.7 |
| 20260506024119 | 77 | 0 | 2.6 | 7.0 | 0.00 | 0.00 | 0.00 | 66 | 1007.5 |
| 20260506023620 | 78 | 0 | 2.6 | 7.0 | 0.00 | 0.00 | 0.00 | 66 | 1007.4 |
| 20260506023353 | 78 | 0 | 2.6 | 7.0 | 0.00 | 0.00 | 0.00 | 66 | 1007.3 |
| 20260506022615 | 78 | 0 | 2.6 | 5.2 | 0.00 | 0.00 | 0.00 | 65 | 1007.2 |
| 20260506022114 | 78 | 0 | 2.6 | 7.0 | 0.00 | 0.00 | 0.00 | 65 | 1007.1 |
| 20260506021615 | 78 | 0 | 2.6 | 7.0 | 0.00 | 0.00 | 0.00 | 65 | 1007.1 |
| 20260506021113 | 78 | 0 | 3.5 | 7.8 | 0.00 | 0.00 | 0.00 | 64 | 1006.9 |
| 20260506020613 | 78 | 0 | 2.6 | 7.8 | 0.00 | 0.00 | 0.00 | 64 | 1006.8 |
| 20260506020112 | 78 | 0 | 2.6 | 7.0 | 0.00 | 0.00 | 0.00 | 64 | 1006.7 |
| 20260506015609 | 79 | 0 | 1.7 | 7.0 | 0.00 | 0.00 | 0.00 | 63 | 1006.8 |
| 20260506015109 | 79 | 0 | 1.7 | 4.3 | 0.00 | 0.00 | 0.00 | 63 | 1006.8 |
| 20260506014607 | 79 | 123 | 1.7 | 5.2 | 0.00 | 0.00 | 0.00 | 62 | 1006.7 |
| 20260506014347 | 80 | 155 | 2.6 | 5.2 | 0.00 | 0.00 | 0.00 | 62 | 1006.7 |
| 20260506013607 | 80 | 157 | 1.7 | 5.2 | 0.00 | 0.00 | 0.00 | 61 | 1006.7 |
| 20260506013104 | 80 | 155 | 1.7 | 4.3 | 0.00 | 0.00 | 0.00 | 61 | 1006.7 |
| 20260506012604 | 80 | 153 | 1.7 | 5.2 | 0.00 | 0.00 | 0.00 | 61 | 1006.8 |
| 20260506012128 | 81 | 142 | 1.7 | 4.3 | 0.00 | 0.00 | 0.00 | 59 | 1006.7 |
| 20260506012120 | 81 | 159 | 1.7 | 5.2 | 0.00 | 0.00 | 0.00 | 60 | 1006.7 |
| 20260506011101 | 81 | 160 | 2.6 | 4.3 | 0.00 | 0.00 | 0.00 | 59 | 1006.6 |
| 20260506010840 | 81 | 156 | 2.6 | 5.2 | 0.00 | 0.00 | 0.00 | 59 | 1006.6 |
| 20260506010056 | 82 | 165 | 1.7 | 5.2 | 0.00 | 0.00 | 0.00 | 58 | 1006.6 |
| 20260506005837 | 82 | 167 | 0.9 | 4.3 | 0.00 | 0.00 | 0.00 | 58 | 1006.6 |
| 20260506005054 | 82 | 158 | 0.9 | 4.3 | 0.00 | 0.00 | 0.00 | 58 | 1006.6 |
| 20260506004555 | 82 | 173 | 0.9 | 5.2 | 0.00 | 0.00 | 0.00 | 58 | 1006.6 |
| 20260506004055 | 82 | 171 | 0.9 | 5.2 | 0.00 | 0.00 | 0.00 | 58 | 1006.5 |
| 20260506003554 | 82 | 182 | 0.0 | 3.5 | 0.00 | 0.00 | 0.00 | 58 | 1006.4 |
| 20260506003048 | 82 | 165 | 0.9 | 3.5 | 0.00 | 0.00 | 0.00 | 58 | 1006.5 |
| 20260506002547 | 82 | 164 | 0.9 | 5.2 | 0.00 | 0.00 | 0.00 | 58 | 1006.5 |
| 20260506002045 | 82 | 165 | 0.9 | 5.2 | 0.00 | 0.00 | 0.00 | 58 | 1006.5 |
| 20260506001543 | 82 | 179 | 1.7 | 6.1 | 0.00 | 0.00 | 0.00 | 57 | 1006.4 |
| 20260506001043 | 82 | 148 | 1.7 | 6.1 | 0.00 | 0.00 | 0.00 | 57 | 1006.4 |
| 20260506000541 | 82 | 171 | 1.7 | 5.2 | 0.00 | 0.00 | 0.00 | 57 | 1006.4 |
| 20260506000038 | 83 | 140 | 2.6 | 8.7 | 0.00 | 0.00 | 0.00 | 57 | 1006.3 |
| 20260505235817 | 83 | 148 | 2.6 | 8.7 | 0.00 | 0.00 | 0.00 | 56 | 1006.3 |
| 20260505235037 | 83 | 154 | 2.6 | 8.7 | 0.00 | 0.00 | 0.00 | 56 | 1006.1 |
| 20260505234817 | 83 | 169 | 3.5 | 7.8 | 0.00 | 0.00 | 0.00 | 56 | 1006.1 |
| 20260505234036 | 83 | 188 | 3.5 | 9.6 | 0.00 | 0.00 | 0.00 | 56 | 1006.0 |
| 20260505233530 | 83 | 146 | 3.5 | 9.6 | 0.00 | 0.00 | 0.00 | 56 | 1006.1 |
| 20260505233031 | 83 | 180 | 3.5 | 7.0 | 0.00 | 0.00 | 0.00 | 56 | 1006.0 |
| 20260505232807 | 83 | 152 | 3.5 | 7.8 | 0.00 | 0.00 | 0.00 | 56 | 1006.0 |
| 20260505232032 | 83 | 160 | 4.3 | 9.6 | 0.00 | 0.00 | 0.00 | 56 | 1006.1 |
| 20260505231531 | 83 | 234 | 4.3 | 9.6 | 0.00 | 0.00 | 0.00 | 56 | 1006.0 |
| 20260505231032 | 83 | 150 | 4.3 | 9.6 | 0.00 | 0.00 | 0.00 | 55 | 1006.2 |
| 20260505230528 | 83 | 150 | 4.3 | 9.6 | 0.00 | 0.00 | 0.00 | 55 | 1006.0 |
| 20260505230310 | 83 | 182 | 2.6 | 9.6 | 0.00 | 0.00 | 0.00 | 55 | 1005.9 |
| 20260505225529 | 84 | 143 | 3.5 | 7.0 | 0.00 | 0.00 | 0.00 | 55 | 1006.0 |
| 20260505225051 | 84 | 154 | 3.5 | 8.7 | 0.00 | 0.00 | 0.00 | 54 | 1005.9 |
| 20260505225045 | 84 | 209 | 3.5 | 7.0 | 0.00 | 0.00 | 0.00 | 54 | 1005.9 |
| 20260505224029 | 84 | 0 | 3.5 | 8.7 | 0.00 | 0.00 | 0.00 | 54 | 1005.9 |
| 20260505223529 | 83 | 161 | 4.3 | 9.6 | 0.00 | 0.00 | 0.00 | 55 | 1005.9 |
| 20260505223043 | 84 | 174 | 5.2 | 12.2 | 0.00 | 0.00 | 0.00 | 54 | 1005.9 |
| 20260505223037 | 83 | 184 | 4.3 | 9.6 | 0.00 | 0.00 | 0.00 | 54 | 1006.0 |
| 20260505222020 | 83 | 173 | 4.3 | 12.2 | 0.00 | 0.00 | 0.00 | 54 | 1006.0 |
| 20260505221519 | 83 | 161 | 3.5 | 9.6 | 0.00 | 0.00 | 0.00 | 55 | 1006.1 |
| 20260505221021 | 83 | 175 | 4.3 | 9.6 | 0.00 | 0.00 | 0.00 | 55 | 1006.1 |
| 20260505220521 | 84 | 165 | 4.3 | 9.6 | 0.00 | 0.00 | 0.00 | 54 | 1006.1 |
| 20260505220019 | 84 | 170 | 3.5 | 9.6 | 0.00 | 0.00 | 0.00 | 53 | 1006.1 |
| 20260505215517 | 84 | 227 | 3.5 | 7.8 | 0.00 | 0.00 | 0.00 | 56 | 1006.3 |
| 20260505215016 | 84 | 216 | 3.5 | 7.0 | 0.00 | 0.00 | 0.00 | 54 | 1006.4 |
| 20260505214516 | 84 | 217 | 2.6 | 10.4 | 0.00 | 0.00 | 0.00 | 56 | 1006.4 |
| 20260505214257 | 84 | 187 | 2.6 | 10.4 | 0.00 | 0.00 | 0.00 | 55 | 1006.4 |
| 20260505213756 | 84 | 178 | 2.6 | 7.8 | 0.00 | 0.00 | 0.00 | 55 | 1006.3 |
| 20260505213009 | 84 | 171 | 2.6 | 7.8 | 0.00 | 0.00 | 0.00 | 55 | 1006.5 |
| 20260505212752 | 83 | 202 | 3.5 | 8.7 | 0.00 | 0.00 | 0.00 | 56 | 1006.7 |
| 20260505212008 | 83 | 188 | 4.3 | 8.7 | 0.00 | 0.00 | 0.00 | 56 | 1006.8 |
| 20260505211508 | 83 | 132 | 3.5 | 8.7 | 0.00 | 0.00 | 0.00 | 56 | 1006.8 |
| 20260505211008 | 83 | 157 | 3.5 | 8.7 | 0.00 | 0.00 | 0.00 | 56 | 1006.6 |
| 20260505210508 | 83 | 166 | 3.5 | 10.4 | 0.00 | 0.00 | 0.00 | 55 | 1006.9 |
| 20260505210009 | 83 | 183 | 3.5 | 10.4 | 0.00 | 0.00 | 0.00 | 56 | 1007.0 |
| 20260505205503 | 83 | 228 | 3.5 | 8.7 | 0.00 | 0.00 | 0.00 | 54 | 1007.1 |
| 20260505205003 | 84 | 158 | 3.5 | 8.7 | 0.00 | 0.00 | 0.00 | 55 | 1006.9 |
| 20260505204502 | 83 | 145 | 3.5 | 10.4 | 0.00 | 0.00 | 0.00 | 56 | 1007.0 |
| 20260505204001 | 83 | 153 | 4.3 | 10.4 | 0.00 | 0.00 | 0.00 | 55 | 1007.0 |
| 20260505203501 | 82 | 188 | 4.3 | 9.6 | 0.00 | 0.00 | 0.00 | 56 | 1007.2 |
| 20260505203003 | 82 | 191 | 4.3 | 12.2 | 0.00 | 0.00 | 0.00 | 56 | 1007.2 |
| 20260505202459 | 82 | 225 | 4.3 | 12.2 | 0.00 | 0.00 | 0.00 | 56 | 1007.3 |
| 20260505202000 | 82 | 210 | 3.5 | 9.6 | 0.00 | 0.00 | 0.00 | 57 | 1007.4 |
| 20260505201501 | 82 | 167 | 3.5 | 10.4 | 0.00 | 0.00 | 0.00 | 58 | 1007.5 |
| 20260505201001 | 82 | 166 | 3.5 | 10.4 | 0.00 | 0.00 | 0.00 | 57 | 1007.6 |
| 20260505200500 | 82 | 216 | 2.6 | 7.0 | 0.00 | 0.00 | 0.00 | 57 | 1007.7 |
| 20260505200001 | 81 | 175 | 2.6 | 7.0 | 0.00 | 0.00 | 0.00 | 58 | 1007.7 |
| 20260505195500 | 81 | 165 | 2.6 | 7.8 | 0.00 | 0.00 | 0.00 | 58 | 1008.0 |
| 20260505194955 | 81 | 175 | 2.6 | 7.8 | 0.00 | 0.00 | 0.00 | 58 | 1008.1 |
| 20260505194456 | 81 | 213 | 3.5 | 8.7 | 0.00 | 0.00 | 0.00 | 59 | 1008.1 |
| 20260505193956 | 80 | 195 | 3.5 | 8.7 | 0.00 | 0.00 | 0.00 | 59 | 1008.1 |
| 20260505193455 | 80 | 132 | 2.6 | 8.7 | 0.00 | 0.00 | 0.00 | 59 | 1008.2 |
| 20260505192955 | 80 | 153 | 2.6 | 8.7 | 0.00 | 0.00 | 0.00 | 59 | 1008.2 |
| 20260505192455 | 81 | 165 | 3.5 | 9.6 | 0.00 | 0.00 | 0.00 | 59 | 1008.2 |
| 20260505191958 | 80 | 182 | 3.5 | 9.6 | 0.00 | 0.00 | 0.00 | 59 | 1008.4 |
| 20260505191457 | 80 | 197 | 3.5 | 8.7 | 0.00 | 0.00 | 0.00 | 59 | 1008.2 |
| 20260505190957 | 80 | 165 | 3.5 | 8.7 | 0.00 | 0.00 | 0.00 | 60 | 1008.3 |
| 20260505190455 | 79 | 198 | 3.5 | 10.4 | 0.00 | 0.00 | 0.00 | 60 | 1008.4 |
| 20260505190237 | 79 | 169 | 3.5 | 10.4 | 0.00 | 0.00 | 0.00 | 61 | 1008.4 |
| 20260505185452 | 79 | 132 | 3.5 | 7.8 | 0.00 | 0.00 | 0.00 | 60 | 1008.4 |
| 20260505185232 | 79 | 160 | 3.5 | 7.8 | 0.00 | 0.00 | 0.00 | 61 | 1008.5 |